Regional Weather Roundup
Issued by NWS

Home | Current Version | Previous Version | Graphics & Text | Print | Product List | Glossary On
Versions: 1 2 3 4 5 6 7 8 9 10 11 12 13 14 15 16 17 18 19 20 21 22 23 24 25 26 27 28 29 30 31 32 33 34 35 36 37 38 39 40 41 42 43 44 45 46 47 48
000
ASUS45 KBOI 280210
RWRID
WEATHER ROUNDUP FOR IDAHO
NATIONAL WEATHER SERVICE BOISE ID
700 PM MST TUE JAN 27 2015

NOTE: "FAIR" INDICATES FEW OR NO CLOUDS BELOW 12000 FEET
WITH NO SIGNIFICANT WEATHER AND/OR OBSTRUCTIONS TO VISIBILITY

IDZ012-014-280300-
SOUTHWEST IDAHO


CITY           SKY/WX    TMP DP  RH WIND       PRES   REMARKS
BOISE          LGT RAIN  37  35  92 CALM      30.13R
CALDWELL       CLOUDY    37  30  75 NW3       30.16R
MOUNTAIN HOME  LGT RAIN  35  35  99 W2        30.12R FOG
$$

IDZ016-017-280300-
SOUTHCENTRAL IDAHO


CITY           SKY/WX    TMP DP  RH WIND       PRES   REMARKS
BURLEY         LGT RAIN  46  37  71 S9        30.09R
JEROME         LGT RAIN  40  37  89 E5        30.11S
TWIN FALLS     LGT RAIN  44  40  85 SW7       30.11S
$$

IDZ019>023-280300-
SOUTHEAST IDAHO


CITY           SKY/WX    TMP DP  RH WIND       PRES   REMARKS
IDAHO FALLS    CLOUDY    38  36  92 CALM      30.13F
POCATELLO      CLOUDY    45  37  73 S12       30.12S
REXBURG        LGT RAIN  56  36  47 S7        30.14S
$$

IDZ006-010-011-018-031-032-280300-
CENTRAL IDAHO MOUNTAINS


CITY           SKY/WX    TMP DP  RH WIND       PRES   REMARKS
MCCALL         CLOUDY    35  30  82 CALM      30.08R
HAILEY         DRIZZLE   37  34  87 NW5       30.12S WCI  34
STANLEY          N/A     37  32  82 SE5       30.10R WCI  33
SALMON         CLOUDY   N/A N/A N/A NE3       30.08S
CHALLIS        CLOUDY    35  30  82 E3        30.07R
$$

IDZ002-004-006-007-026-280300-
NORTHERN IDAHO


CITY           SKY/WX    TMP DP  RH WIND       PRES   REMARKS
LEWISTON       CLOUDY    47  39  74 CALM      30.06R
LOWELL           N/A     39  36  89 N5        30.10R
COEUR D`ALENE  PTCLDY    34  30  86 CALM      30.01R
MULLAN PASS    MOCLDY    37  26  64 SW7       30.00S WCI  32
$$


USA.gov is the U.S. government's official web portal to all federal, state and local government web resources and services.